2004 NT33
Epoch 2007 Oct. 27.0 TT = JDT 2454400.5                 MPC
M  28.76791              (2000.0)            P               Q
n   0.00341806     Peri.   37.77406     +0.07333771     +0.88859245
a  43.6464828      Node   240.89982     -0.99369203     +0.02648367
e   0.1555549      Incl.   31.21227     -0.08483944     +0.45793239
P 288              H    5.3           G   0.15           U   5
Residuals in seconds of arc
K047D  644  0.2+  0.6-    K0573  644  0.3-  0.2+    K057U  644  0.4-  1.5-
K047D  644  0.1+  0.1-    K0574  644  0.2+  0.6+    K069E  644  0.0   0.1-
K047D  644  0.0   0.0     K0574  644  0.1+  0.6+    K069F  644  0.2+  0.1-
K0573  644  0.3-  0.3+    K0574  644  0.2+  0.5+    K069G  644  0.1+  0.3-
K0573  644  0.2-  0.3+    K057T  644  0.1+  0.1+

2005 CA79
Epoch 2007 Oct. 27.0 TT = JDT 2454400.5                 MPC
M   8.90646              (2000.0)            P               Q
n   0.00299461     Peri.   63.15877     -0.38349804     -0.91033584
a  47.6696731      Node    50.27523     +0.75917233     -0.40669214
e   0.2236821      Incl.   11.67357     +0.52591504     -0.07674735
P 329              H    5.5           G   0.15           U   6
Residuals in seconds of arc
K0521  644  0.3-  0.2-    K0522  644  0.1+  0.3-    K05B5  644  0.0   0.3-
K0521  644  0.3+  0.0     K054D  644  0.0   0.2+    K05B5  644  0.2-  0.1-
K0521  644  0.1-  0.1+    K054D  644  0.1-  0.1+    K063P  644  0.1+  0.1+
K0522  644  0.2-  0.2+    K054E  644  0.0   0.0     K063P  644  0.1+  0.0
K0522  644  0.3+  0.4-    K054E  644  0.0   0.5+

2005 CB79
Epoch 2007 Oct. 27.0 TT = JDT 2454400.5                 MPC
M 306.91046              (2000.0)            P               Q
n   0.00346440     Peri.   92.47380     -0.79100824     +0.42299087
a  43.2564538      Node   112.85839     -0.53955151     -0.82290868
e   0.1422769      Incl.   28.66548     +0.28842700     -0.37934157
P 284              H    5.4           G   0.15           U   5
Residuals in seconds of arc
K0526  644  0.7-  0.6+    K0526  644  0.8-  0.5+    K062N  644  0.1-  0.1-
K0526  644  1.1+  0.0     K0526  644  0.7+  0.0     K062N  644  0.3-  0.1-
K0526  644  0.3-  1.0+    K053B  644  0.5-  1.4-    K063P  644  0.1-  0.1+
K0526  644  0.7+  0.1+    K053D  644  0.3-  0.9-    K063P  644  0.5+  0.2+

2005 UQ513
Epoch 2007 Oct. 27.0 TT = JDT 2454400.5                 MPC
M 218.39271              (2000.0)            P               Q
n   0.00345745     Peri.  218.41946     -0.92188118     -0.17953567
a  43.3144201      Node   307.64098     +0.36264387     -0.71190200
e   0.1527439      Incl.   25.69794     -0.13647162     -0.67894219
P 285              H    4.1           G   0.15           U   7
Residuals in seconds of arc
K05AL  644  0.7+  0.0     K05AO  644  0.4+  0.3+    K05BU  644  0.3+  0.5+
K05AL  644  0.4+  0.2+    K05AO  644  0.5+  0.5+    K05BU  644  0.4+  0.5+
K05AL  644  0.1-  0.1+    K05AO  644  0.4+  0.4+    K069F  644  0.7+  0.1+
K05AM  644  0.3+  0.2+    K05AQ  644  0.5+  0.4+    K069G  644  0.3+  0.4+
K05AM  644  0.1+  0.5+    K05AQ  644  0.5+  0.3+    K069G  644  0.0   0.3-
K05AM  644  0.3+  0.1+    K05AQ  644  0.7+  0.2+    K069N  644  0.3+  0.6+
K05AN  644  0.4+  0.3+    K05B4  644  0.0   0.1-    K069P  644  0.3+  0.3+
K05AN  644  0.5+  0.1+    K05B4  644  0.0   0.0     K069Q  644  0.3+  0.3+
K05AN  644  0.4+  0.5+    K05B4  644  0.1+  0.0

Ephemerides:
2003 UY413               a,e,i = 66.46, 0.57, 21                 q = 28.380
Date    TT    R. A. (2000) Decl.     Delta      r     Elong.  Phase     V
2007 08 28    00 40.08   +17 31.6   36.787   37.528   136.7     1.1    21.6
2007 09 07    00 39.36   +17 30.1   36.675   37.514   145.9     0.9    21.5
2007 09 17    00 38.55   +17 27.6   36.588   37.500   154.8     0.7    21.5
2007 09 27    00 37.69   +17 24.2   36.528   37.487   162.8     0.5    21.5
2007 10 07    00 36.80   +17 19.9   36.496   37.473   167.5     0.3    21.5
2007 10 17    00 35.93   +17 15.1   36.493   37.459   165.4     0.4    21.5
2007 10 27    00 35.10   +17 09.9   36.520   37.445   158.2     0.6    21.5
2007 11 06    00 34.34   +17 04.5   36.575   37.431   149.3     0.8    21.5
2007 11 16    00 33.68   +16 59.2   36.657   37.417   139.8     1.0    21.5
2007 11 26    00 33.16   +16 54.1   36.761   37.403   130.0     1.2    21.6
2007 12 06    00 32.79   +16 49.7   36.885   37.389   120.1     1.3    21.6
2007 12 16    00 32.58   +16 45.9   37.025   37.375   110.2     1.4    21.6
2007 12 26    00 32.55   +16 43.0   37.175   37.362   100.2     1.5    21.6
2008 01 05    00 32.69   +16 41.2   37.330   37.348    90.3     1.5    21.6
2008 01 15    00 33.02   +16 40.5   37.486   37.334    80.4     1.5    21.6
2008 01 25    00 33.51   +16 41.0   37.637   37.320    70.5     1.4    21.6
2008 02 04    00 34.16   +16 42.7   37.777   37.306    60.8     1.3    21.6
2008 02 14    00 34.95   +16 45.6   37.903   37.292    51.2     1.2    21.6
2008 02 24    00 35.86   +16 49.7   38.011   37.278    41.7     1.0    21.6
2008 03 05    00 36.87   +16 54.8   38.097   37.265    32.5     0.8    21.6

2003 UZ413               a,e,i = 38.92, 0.21, 12                 q = 30.583
Date    TT    R. A. (2000) Decl.     Delta      r     Elong.  Phase     V
2007 08 28    02 55.58   +04 04.5   41.537   41.911   111.0     1.3    21.1
2007 09 07    02 55.36   +04 00.7   41.395   41.916   120.5     1.2    21.1
2007 09 17    02 54.99   +03 56.5   41.268   41.921   130.0     1.1    21.0
2007 09 27    02 54.49   +03 52.0   41.159   41.926   139.5     0.9    21.0
2007 10 07    02 53.89   +03 47.5   41.073   41.931   148.8     0.7    21.0
2007 10 17    02 53.20   +03 43.0   41.013   41.936   157.6     0.5    21.0
2007 10 27    02 52.45   +03 38.8   40.981   41.942   165.0     0.4    21.0
2007 11 06    02 51.66   +03 34.9   40.978   41.947   167.6     0.3    20.9
2007 11 16    02 50.87   +03 31.6   41.005   41.952   163.0     0.4    21.0
2007 11 26    02 50.10   +03 28.9   41.061   41.957   154.9     0.6    21.0
2007 12 06    02 49.38   +03 27.0   41.145   41.962   145.6     0.8    21.0
2007 12 16    02 48.75   +03 25.9   41.255   41.967   135.9     0.9    21.0
2007 12 26    02 48.22   +03 25.8   41.386   41.972   126.0     1.1    21.1
2008 01 05    02 47.81   +03 26.5   41.536   41.977   116.1     1.2    21.1
2008 01 15    02 47.55   +03 28.2   41.699   41.982   106.1     1.3    21.1
2008 01 25    02 47.44   +03 30.7   41.871   41.987    96.1     1.3    21.1
2008 02 04    02 47.48   +03 34.0   42.046   41.992    86.2     1.3    21.1
2008 02 14    02 47.69   +03 38.0   42.219   41.998    76.4     1.3    21.1
2008 02 24    02 48.04   +03 42.6   42.385   42.003    66.6     1.2    21.1
2008 03 05    02 48.54   +03 47.6   42.540   42.008    57.0     1.1    21.1
2008 03 15    02 49.17   +03 52.9   42.678   42.013    47.5     1.0    21.1
2008 03 25    02 49.92   +03 58.3   42.797   42.018    38.3     0.8    21.1

2004 NT33                a,e,i = 43.65, 0.16, 31                 q = 36.857
Date    TT    R. A. (2000) Decl.     Delta      r     Elong.  Phase     V
2007 08 28    20 33.05   +13 18.4   37.163   37.983   143.9     0.9    21.2
2007 09 07    20 32.36   +13 12.1   37.227   37.986   138.3     1.0    21.2
2007 09 17    20 31.77   +13 05.1   37.314   37.989   131.6     1.1    21.2
2007 09 27    20 31.33   +12 57.7   37.421   37.991   124.1     1.3    21.2
2007 10 07    20 31.03   +12 49.9   37.544   37.994   116.1     1.4    21.3
2007 10 17    20 30.91   +12 42.2   37.680   37.996   107.8     1.4    21.3
2007 10 27    20 30.96   +12 34.8   37.826   37.999    99.3     1.5    21.3
2007 11 06    20 31.19   +12 28.0   37.976   38.002    90.7     1.5    21.3
2007 11 16    20 31.60   +12 22.0   38.128   38.004    82.1     1.5    21.3
2007 11 26    20 32.17   +12 16.9   38.275   38.007    73.5     1.4    21.3
2007 12 06    20 32.90   +12 13.1   38.414   38.009    65.1     1.3    21.3
2007 12 16    20 33.76   +12 10.6   38.540   38.012    56.9     1.2    21.3
2007 12 26    20 34.74   +12 09.5   38.651   38.014    49.1     1.1    21.3
2008 01 05    20 35.81   +12 09.8   38.742   38.017    42.0     1.0    21.3
2008 01 15    20 36.95   +12 11.7   38.812   38.020    35.9     0.9    21.3
2008 01 25    20 38.12   +12 15.0   38.857   38.022    31.6     0.8    21.3

